Tracking 25612 objects as of 19-May-2022
HD Live streaming from Space Station
objects crossing your sky now

COSMOS 2251 DEB

Track COSMOS 2251 DEB now!
10-day predictions


NORAD ID: 33984
Int'l Code: 1993-036FT
Perigee: 706.8 km
Apogee: 749.9 km
Inclination: 74.0 °
Period: 99.2 minutes
Semi major axis: 7099 km
RCS: 0.0676 m2 (small)
Launch date: June 16, 1993
Source: Commonwealth of Independent States (former USSR) (CIS)
Launch site: PLESETSK MISSILE AND SPACE COMPLEX (PKMTR)

Note: This is SATELLITE DEBRIS
aabbcc
Your satellite tracking list
Your tracking list is empty




NASA's NSSDC Master Catalog

Two Line Element Set (TLE):
1 33984U 93036FT  22139.20580466  .00003827  00000-0  96087-3 0  9999
2 33984  74.0146 308.0860 0030380 100.7088  74.0078 14.51364356700881
Source of the keplerian elements: AFSPC